Theta_e
346 346 347 345 345 347 347 349 350 348 345 343 344 343 342 341 339 338 336 334 333 334 335 335 337 337 336 336 339 340 340 345 347 347 348 347 347 347 346 344 343 342 339 339 339 340 339 337 337 338 339 338 332 329 332 335 334 333 333 333 334 334 334 333 332 332 333 333 333 334 334 334 334 335 335 336 336 336 336 335 335 335 335 335 335
345 343 344 345 346 346 344 345 346 345 343 342 344 343 342 341 339 337 335 334 333 334 334 335 337 338 337 337 341 343 343 345 347 347 347 347 347 346 347 347 345 343 340 338 337 338 340 339 337 337 338 339 338 332 329 332 334 333 333 333 334 334 333 334 333 332 332 333 333 334 334 334 335 335 335 335 336 336 335 335 334 334 333 333 334
341 340 341 342 343 341 340 340 340 341 343 343 344 343 340 337 336 334 333 332 333 334 336 338 338 338 336 338 341 344 345 346 346 346 346 347 348 347 347 347 347 345 342 339 337 337 338 339 337 337 338 338 339 337 331 329 332 333 332 333 334 334 334 334 333 333 332 332 332 333 333 333 334 334 334 334 334 334 334 333 333 333 332 332 332
338 337 337 338 339 339 339 339 339 340 341 342 343 342 339 336 333 331 330 331 331 333 337 339 339 337 336 338 341 343 345 346 347 347 346 346 347 348 347 347 347 346 344 341 339 338 337 337 337 337 337 337 338 338 335 330 329 332 332 333 333 333 334 334 333 333 332 331 331 331 331 332 332 332 332 332 332 332 332 332 332 332 332 331 331
338 337 337 338 339 339 339 340 340 341 340 340 341 340 340 339 336 333 332 331 330 331 334 337 337 338 336 338 342 343 343 344 345 345 346 347 347 347 347 347 348 346 345 345 341 338 338 337 337 337 336 336 337 337 337 333 329 330 332 333 333 333 334 334 334 333 333 331 331 330 330 330 330 330 331 331 331 331 331 332 332 331 331 331 331
340 340 340 340 341 341 341 340 342 343 343 342 341 339 339 340 339 338 336 334 331 331 334 335 335 336 336 337 339 342 345 345 344 342 341 344 345 346 346 347 348 347 345 346 344 341 338 337 337 336 336 336 336 336 337 335 331 329 331 332 333 333 334 335 335 334 333 333 331 330 330 330 330 330 331 331 331 332 332 332 332 332 332 332 332
343 344 342 342 343 343 343 344 346 347 347 346 344 342 340 340 340 340 340 339 337 335 335 336 337 335 336 337 337 340 344 344 345 345 342 340 341 342 344 345 346 346 345 344 344 344 341 338 337 337 336 336 336 335 336 336 333 330 330 330 332 333 334 335 336 335 334 333 332 331 331 331 332 331 331 331 331 332 332 332 332 332 332 331 331
344 344 344 344 345 344 344 346 348 349 349 349 348 346 344 342 342 340 340 339 339 337 336 338 341 340 339 338 337 338 339 339 341 345 346 342 338 338 341 343 343 344 345 344 342 343 343 340 338 337 336 336 336 335 335 335 334 333 331 330 331 332 333 334 335 336 335 334 333 332 332 332 332 333 333 332 332 332 331 331 331 331 331 331 331
343 344 344 344 345 345 346 347 348 349 349 350 349 348 347 345 342 340 339 338 338 338 337 340 343 343 342 340 338 337 337 337 337 341 347 345 341 338 338 341 342 343 343 344 343 343 344 343 340 339 337 336 336 336 337 336 335 334 332 331 330 330 332 333 334 335 336 335 334 332 332 332 332 332 333 333 332 332 331 331 330 330 330 330 330
343 343 342 341 342 343 343 344 347 349 349 349 349 348 348 346 343 340 339 340 342 343 342 342 341 341 341 340 341 341 339 340 340 342 345 345 344 341 339 339 340 342 342 342 344 343 343 344 343 341 340 338 337 336 337 337 337 336 334 332 331 330 329 331 333 334 335 335 335 333 331 331 331 331 331 332 331 331 330 329 329 329 329 329 329
340 337 336 336 336 335 335 337 341 345 346 348 349 348 348 346 343 341 341 342 344 343 340 338 337 338 339 340 342 342 340 341 342 343 343 344 345 345 343 341 340 340 341 341 343 343 343 344 343 341 340 340 339 338 338 337 338 338 337 336 333 332 330 330 330 332 334 335 335 334 331 329 329 329 329 330 330 330 330 329 329 328 328 327 327
336 334 333 333 333 334 334 334 335 338 340 343 344 344 345 344 342 341 340 340 340 337 333 332 333 336 337 337 339 340 339 340 341 342 343 343 344 344 344 343 341 340 340 340 341 342 342 343 343 342 340 341 341 340 339 338 338 338 339 338 337 334 332 331 330 330 331 333 334 333 331 329 328 328 328 329 330 330 330 330 330 329 328 328 328
332 334 335 335 336 337 337 336 336 336 337 338 339 340 341 341 341 340 341 340 339 337 334 333 335 336 336 338 339 339 338 339 340 340 342 342 342 343 343 342 340 338 339 340 340 340 341 342 342 341 340 342 342 341 339 338 339 338 338 339 339 337 335 333 331 330 330 331 332 332 330 330 328 327 327 329 330 331 331 331 331 330 330 330 330
333 333 334 335 335 336 338 339 339 340 340 340 340 340 341 342 343 343 343 344 343 341 338 337 338 338 339 341 341 339 339 339 339 339 340 340 341 342 342 342 341 340 342 342 341 340 342 343 342 341 341 341 343 342 339 338 339 339 338 338 339 340 339 336 333 331 331 331 331 331 330 330 329 327 328 329 331 332 332 332 332 332 331 331 331
337 334 333 335 337 339 339 339 340 341 340 339 339 340 341 342 343 344 344 344 344 342 340 340 341 341 342 343 342 341 341 341 341 342 342 342 343 343 344 344 344 345 346 345 343 342 342 343 343 342 341 339 342 342 338 336 338 339 339 338 339 339 340 340 337 332 330 330 331 331 331 330 328 327 328 330 332 333 334 334 334 333 332 332 331
342 338 337 338 340 341 341 341 340 340 340 339 339 339 341 342 343 344 344 344 343 342 342 342 343 343 342 342 342 342 343 342 341 341 342 343 344 345 347 346 346 346 346 346 345 344 343 343 344 345 343 341 341 341 337 336 338 340 339 339 339 339 340 341 340 337 332 330 331 332 331 331 329 328 329 331 333 334 335 336 336 334 333 333 333
340 339 338 339 337 338 339 340 340 340 341 341 340 340 341 342 344 344 344 343 342 341 340 341 342 342 341 342 342 343 343 342 340 339 340 341 342 343 345 346 345 345 345 345 345 344 344 344 345 346 346 345 343 341 340 339 339 341 341 340 340 340 341 341 342 341 337 333 332 333 333 333 332 330 330 332 334 335 336 337 337 335 334 335 334
339 338 338 338 336 336 338 339 340 340 341 342 342 341 341 343 343 342 342 341 341 340 340 339 339 340 340 341 341 342 342 341 341 340 339 339 339 340 342 342 343 344 345 345 343 344 344 344 344 345 346 347 346 344 344 342 341 342 341 340 340 340 340 341 341 341 340 337 334 334 334 334 333 333 334 336 336 336 337 338 338 336 336 337 336
338 337 338 337 335 335 337 337 338 339 340 340 341 341 341 342 341 341 341 340 339 340 339 338 338 338 339 339 340 340 340 340 340 340 340 339 337 337 338 338 341 342 342 342 342 343 343 343 344 344 345 346 347 347 347 346 344 344 342 339 338 339 340 340 340 340 340 340 338 336 336 335 334 335 336 338 339 338 338 338 338 337 337 337 336
337 339 339 338 336 335 334 332 332 334 336 337 338 340 339 339 338 339 340 339 337 337 338 337 336 336 337 338 338 338 338 338 338 339 340 341 339 337 337 338 339 340 340 339 339 340 342 343 343 344 345 346 347 347 347 347 347 345 344 342 338 337 339 340 339 339 339 339 339 338 338 337 336 335 336 337 338 339 338 338 338 338 338 337 335
336 340 341 340 339 337 331 327 327 328 331 331 333 335 336 337 338 338 337 337 336 334 334 334 333 334 335 336 337 337 337 337 337 338 338 339 340 339 338 338 338 339 339 338 337 337 338 340 342 343 344 345 345 346 347 348 348 347 346 344 340 338 338 339 339 338 339 337 337 338 338 338 337 336 335 336 336 337 337 337 337 337 337 336 335
332 336 337 337 339 337 328 326 327 327 328 328 328 330 331 332 333 335 335 336 336 335 334 334 333 334 335 335 335 336 336 337 337 337 336 338 339 338 337 338 338 338 338 338 339 339 337 337 338 340 341 343 344 345 345 346 348 348 348 346 343 340 338 338 337 338 339 338 337 337 337 337 336 336 335 335 336 336 336 336 336 336 337 336 335
335 335 335 336 338 334 326 326 327 326 327 328 328 329 329 329 329 331 332 334 336 336 336 336 335 335 335 335 335 335 335 336 336 335 336 336 337 336 335 336 337 337 336 336 338 340 339 336 335 335 337 340 342 344 344 346 347 348 348 347 345 343 340 338 336 336 338 338 338 337 336 335 335 335 335 334 335 335 335 335 336 336 336 336 334
337 336 336 337 337 332 327 327 327 327 327 328 330 330 330 330 329 330 331 332 333 334 334 334 334 334 333 333 333 333 334 335 335 334 335 335 335 336 334 334 337 338 336 336 336 337 338 337 335 334 334 336 339 342 342 344 346 348 349 348 347 346 344 341 338 336 336 337 337 337 336 334 334 334 334 334 333 333 332 333 335 336 336 336 334
336 337 337 335 332 329 328 330 330 330 329 330 331 331 330 330 330 330 331 332 332 332 332 332 332 333 333 331 331 332 333 333 333 333 333 333 334 335 333 334 337 338 336 336 336 335 337 337 336 336 336 336 337 340 341 342 344 346 347 348 348 348 348 346 342 338 337 336 336 337 336 334 334 333 333 333 332 331 330 330 331 333 336 337 336
336 337 333 329 327 328 328 329 330 331 332 332 333 332 331 329 329 330 331 331 331 332 331 331 331 332 334 333 333 333 332 332 332 332 332 333 333 334 335 335 336 335 335 335 335 334 335 334 335 336 337 335 336 340 341 341 342 344 346 347 347 349 350 349 346 341 338 337 336 335 336 335 334 334 333 332 332 332 331 330 330 330 332 335 336
333 331 328 326 327 327 328 328 329 330 331 332 333 332 330 329 329 329 330 330 331 331 331 330 330 331 332 332 332 331 330 330 330 330 331 332 331 332 335 336 336 336 335 335 335 335 335 334 334 334 335 334 333 336 339 340 341 341 344 346 346 349 351 351 349 346 341 338 336 335 335 335 334 333 333 333 333 333 332 332 331 330 330 331 333
330 328 328 328 328 327 327 327 328 329 329 330 330 329 328 329 328 328 329 329 330 330 329 329 329 329 329 329 329 329 327 326 325 326 327 329 328 329 330 332 334 336 336 335 335 337 338 337 336 334 333 333 332 333 335 338 341 341 343 345 345 347 349 349 348 349 346 341 338 337 336 335 335 333 332 333 332 333 333 333 332 331 331 330 331
334 333 330 329 327 326 325 326 326 326 327 327 327 327 328 329 328 326 327 328 329 328 328 328 327 327 327 327 328 327 325 323 322 324 325 327 329 329 329 329 331 334 336 336 336 336 335 335 336 335 334 333 333 333 333 336 340 341 343 344 345 347 347 347 347 348 349 345 340 336 335 334 334 333 333 333 333 333 333 333 333 332 331 331 331
334 332 328 326 325 324 324 324 324 324 325 325 326 327 328 328 327 326 327 328 328 327 327 327 326 327 328 328 327 326 324 322 322 323 326 328 330 331 331 331 331 333 334 335 335 334 333 333 334 335 335 333 333 333 333 334 337 340 342 343 344 345 346 346 346 346 348 348 344 338 334 333 333 333 334 333 333 333 334 334 334 332 331 331 331
334 332 328 325 324 324 324 324 324 324 325 325 326 326 327 327 326 326 326 327 327 326 326 325 326 328 328 327 325 324 323 322 322 323 325 326 328 330 331 331 331 332 333 334 335 334 333 334 334 335 336 336 334 333 332 332 334 338 341 342 343 345 345 345 346 344 345 348 348 342 336 334 334 333 333 333 333 334 334 335 335 334 333 332 332
331 331 329 326 325 323 323 324 324 324 324 326 326 327 327 326 326 326 326 326 326 325 325 326 326 326 324 324 323 324 323 322 322 322 322 323 324 326 328 329 330 331 332 333 334 333 332 334 335 337 337 336 334 334 333 332 332 334 340 342 342 343 344 344 344 343 343 345 348 346 341 338 337 335 333 333 335 336 336 336 336 337 335 333 332
331 331 331 331 330 326 324 323 323 323 325 326 328 329 328 327 327 327 326 326 326 326 325 326 325 323 322 322 324 323 323 322 321 321 321 322 323 324 325 327 327 328 329 330 330 331 331 332 333 334 335 335 335 335 334 333 332 332 337 339 337 337 340 341 339 339 340 343 345 347 344 340 339 337 335 334 336 336 336 337 337 337 337 335 333
333 332 332 333 332 330 327 324 323 324 325 327 329 330 330 328 328 328 328 327 327 326 326 327 325 323 322 323 324 323 322 322 321 321 320 320 321 321 323 324 325 325 326 328 329 329 330 331 332 332 333 335 337 336 334 333 332 332 335 336 335 335 337 337 336 336 340 343 343 345 344 341 338 338 336 335 336 336 337 337 338 338 337 335 333
332 331 331 331 332 331 330 329 327 325 325 329 330 330 330 329 328 329 329 327 326 327 327 327 327 324 323 324 324 323 321 321 320 319 318 318 319 320 321 322 323 324 325 326 327 328 329 330 332 333 333 336 338 338 336 334 333 333 335 335 335 337 338 336 335 336 340 343 342 342 342 339 338 337 336 335 336 336 337 337 339 338 337 336 335
330 330 330 330 330 330 331 331 331 328 327 329 331 330 330 329 328 330 331 328 326 326 326 327 328 326 325 325 325 322 321 320 318 316 316 317 317 319 320 321 321 322 323 324 325 326 328 329 331 332 333 334 336 337 336 335 335 335 336 336 336 339 340 338 336 336 339 342 342 340 339 337 337 338 337 336 336 337 337 337 338 339 339 338 338
331 331 331 330 329 329 329 330 331 330 330 330 331 330 329 328 328 329 330 330 327 325 325 327 329 327 326 326 325 323 320 319 316 315 316 317 317 318 319 319 320 320 321 322 324 325 326 328 330 331 333 333 334 335 336 336 336 336 335 335 336 338 339 338 336 336 338 340 340 340 339 337 337 338 338 337 336 337 337 337 338 339 339 339 339
332 330 329 329 329 329 329 329 330 331 331 330 330 330 329 328 327 326 327 329 327 326 326 329 330 328 326 327 326 323 319 317 316 314 316 317 317 318 318 319 319 319 319 319 322 324 325 327 330 332 333 333 335 336 336 335 335 335 335 335 337 338 340 340 337 336 339 339 339 340 339 338 337 337 339 339 337 337 337 338 338 338 339 339 339
328 328 329 330 330 330 330 329 330 330 331 331 330 330 329 328 326 325 325 327 327 326 327 329 329 328 326 326 327 324 319 317 316 314 315 316 316 317 318 319 319 319 318 318 320 323 324 326 328 332 333 334 336 338 337 335 334 335 335 337 339 340 341 341 338 337 339 340 339 339 340 340 338 338 339 339 337 336 337 337 338 339 340 340 340
328 330 331 331 330 329 328 329 330 331 332 333 331 331 331 328 326 326 325 326 326 324 325 326 327 327 326 325 326 325 321 318 316 314 314 316 316 317 317 318 318 318 319 318 319 321 324 325 327 330 332 334 335 337 338 336 335 335 335 336 339 341 341 341 339 337 338 338 339 339 339 340 340 340 341 340 338 337 336 338 339 340 341 341 340
330 330 331 330 329 329 329 330 331 331 333 333 332 332 332 330 329 329 327 324 323 321 322 324 324 326 326 324 325 326 324 320 318 316 315 316 318 319 319 318 318 318 318 318 318 320 323 325 326 328 331 332 333 334 336 336 335 335 335 335 338 340 340 340 339 339 339 339 339 340 339 339 341 342 342 341 339 337 337 337 338 339 339 339 338
331 330 329 328 329 330 331 331 331 332 332 331 328 328 331 331 330 329 325 322 321 321 321 322 323 325 326 326 325 325 324 322 320 319 318 318 319 321 320 319 318 318 318 318 318 319 322 324 325 326 328 330 332 332 333 335 336 335 335 336 337 338 340 341 340 340 340 341 341 343 342 340 341 343 342 340 339 337 337 338 338 337 337 335 335
332 331 330 330 330 329 330 330 332 332 330 329 327 326 327 328 329 328 324 322 322 323 322 323 324 326 327 327 327 326 325 323 321 320 319 319 320 322 321 319 319 318 318 318 318 319 322 324 325 326 327 328 329 331 332 334 335 336 336 336 337 338 340 341 340 340 341 342 342 344 343 342 343 344 343 341 339 337 336 337 337 336 335 334 335
334 332 331 330 330 329 330 331 331 330 328 328 328 325 324 326 328 328 326 325 324 323 323 323 324 325 326 326 326 326 326 325 322 320 320 320 321 322 321 319 319 318 318 318 319 321 323 324 324 325 326 326 327 328 330 333 335 336 336 336 336 337 339 342 341 340 339 340 340 342 343 344 344 345 343 342 340 338 337 336 336 336 335 335 336
334 333 331 330 330 330 331 330 329 328 328 327 326 324 324 325 326 327 327 327 325 324 324 323 323 323 324 325 325 324 325 325 324 321 321 320 321 321 320 318 318 318 318 318 319 321 323 324 324 324 324 325 325 325 327 330 333 335 336 336 336 337 339 341 342 340 340 340 340 341 343 343 342 342 342 342 341 339 338 336 336 336 336 335 336
334 332 331 330 330 330 330 328 327 326 326 325 324 322 323 324 325 327 326 326 325 324 324 324 324 323 322 324 324 324 323 323 323 322 321 321 320 320 319 318 318 319 318 318 320 322 322 323 324 324 324 325 325 325 326 327 330 333 335 337 337 337 338 340 340 340 341 341 342 343 344 342 340 340 341 342 342 341 339 337 336 336 336 336 335
333 331 331 330 329 327 326 325 325 325 324 324 324 322 322 323 324 325 325 325 324 323 322 323 323 322 321 322 322 322 320 319 321 322 321 320 321 320 320 320 319 319 317 318 321 323 323 323 324 324 324 324 324 325 326 326 328 331 334 336 337 338 338 340 341 341 342 342 342 344 345 343 340 340 342 343 344 342 340 338 337 336 336 337 336
330 329 329 328 327 326 326 327 327 327 326 326 324 322 321 322 322 324 324 324 324 323 322 322 323 321 321 321 321 321 320 319 321 322 321 320 320 320 321 321 320 318 317 318 320 322 324 324 324 325 325 326 326 326 327 327 327 330 333 335 336 338 339 340 341 342 342 342 342 343 344 343 341 341 341 342 343 342 340 339 338 337 336 335 336
331 329 330 329 328 328 328 329 329 329 329 328 325 323 322 322 321 322 323 323 323 324 323 322 322 321 322 322 323 322 321 319 320 321 319 320 320 320 321 321 319 317 318 319 320 321 323 324 325 326 326 328 329 329 329 328 328 329 333 335 336 337 339 339 340 341 342 342 342 343 344 343 342 341 340 340 341 341 341 340 339 339 337 335 335
332 331 331 330 329 329 329 329 330 330 330 328 327 326 324 322 321 321 322 323 324 324 323 322 321 322 323 323 323 324 322 320 320 319 318 319 320 321 321 320 318 317 318 319 319 318 321 324 326 327 329 331 332 332 331 330 328 329 333 336 337 337 338 339 340 341 341 341 341 342 343 343 343 343 342 341 342 342 341 341 341 340 338 336 335
332 331 331 330 329 329 329 329 329 330 330 329 329 328 325 322 321 321 321 322 322 323 323 322 321 322 323 323 324 324 323 321 319 318 318 320 320 321 321 320 318 317 318 319 318 317 321 325 326 326 330 332 334 334 333 331 329 329 331 334 336 338 339 339 340 340 341 341 340 340 342 343 343 343 342 342 343 342 341 341 342 341 340 339 337
Wind_Speed
4 7 9 12 11 10 10 10 12 13 14 14 12 12 12 10 10 10 11 11 11 12 14 16 14 13 13 13 12 12 13 15 17 13 9 10 10 10 10 12 13 13 12 12 11 11 10 10 11 12 12 12 11 14 16 16 16 15 14 14 13 13 13 13 13 13 13 13 13 12 12 11 11 10 9 8 8 7 7 7 6 6 6 6 6
6 7 9 11 12 13 12 11 13 14 14 13 12 11 11 10 9 10 11 12 13 14 16 17 13 12 14 13 12 13 12 12 13 12 9 9 11 11 10 12 14 14 13 13 14 14 13 12 12 13 13 13 13 13 15 18 18 17 16 16 15 15 15 14 14 14 14 14 14 13 13 12 12 11 10 9 9 9 8 8 8 7 7 7 7
8 9 11 12 13 13 13 13 14 15 16 15 13 13 13 12 11 11 12 13 14 15 17 16 13 12 15 15 13 12 12 11 12 11 10 10 12 11 11 13 15 15 14 13 14 15 16 15 14 13 14 14 14 14 14 17 19 19 18 17 17 16 16 16 15 15 15 15 15 14 14 13 13 12 11 11 10 10 9 9 9 8 8 8 8
11 12 13 13 14 15 16 17 16 16 17 17 17 17 16 16 15 13 14 14 14 15 16 16 15 14 16 16 15 13 13 13 13 14 13 13 13 12 12 15 15 14 14 14 14 16 16 17 16 15 15 15 16 16 15 16 19 20 20 19 18 18 18 17 17 17 16 16 16 15 15 14 13 13 12 12 11 11 10 10 10 9 8 8 8
14 15 15 15 16 17 18 19 19 19 19 20 20 19 20 20 19 18 17 16 16 16 17 17 17 16 16 16 16 15 15 15 15 16 17 15 14 14 15 16 14 14 15 15 16 17 17 18 18 17 17 17 17 17 17 16 17 20 21 21 20 20 19 19 18 18 17 17 17 16 16 15 14 14 13 12 12 11 11 11 10 10 10 9 9
15 15 16 17 18 19 20 20 20 20 20 22 23 22 22 22 22 21 20 19 19 19 19 19 18 18 17 17 17 17 17 18 18 19 19 18 17 18 19 18 17 16 16 16 17 18 18 19 19 19 19 18 18 18 18 17 17 19 22 22 22 21 21 21 20 19 19 18 18 17 16 16 15 14 14 13 13 12 12 11 11 11 11 11 10
15 16 17 17 18 19 20 20 19 18 19 21 22 22 23 24 23 23 22 22 23 23 22 21 19 19 20 20 20 19 19 20 20 20 20 20 20 22 23 22 21 20 19 19 18 19 20 21 20 20 20 20 19 19 19 19 19 20 21 23 23 23 23 22 22 21 21 20 19 18 18 17 16 16 15 15 14 14 13 13 13 13 13 12 12
14 16 17 17 18 18 18 19 18 18 19 21 21 22 22 23 23 23 22 24 25 25 23 22 20 20 21 23 24 24 25 25 24 22 21 22 22 22 24 26 25 23 23 22 21 21 22 22 22 22 22 21 21 20 20 20 21 21 22 23 24 25 25 24 24 23 22 22 21 20 19 19 18 17 17 16 16 15 15 14 14 14 14 13 13
14 15 15 16 17 17 18 20 21 21 21 21 22 23 22 22 23 23 23 23 24 24 23 22 21 21 21 24 26 28 29 29 28 25 22 22 22 21 23 27 28 26 26 25 23 22 23 24 23 23 23 22 23 23 22 22 22 22 23 24 25 25 26 26 26 25 24 24 23 22 21 21 20 19 18 18 17 16 16 16 15 15 14 14 14
14 15 15 16 17 18 19 20 21 23 23 22 22 22 21 22 23 23 23 23 23 22 21 21 21 23 24 25 25 26 26 26 26 26 25 25 24 23 24 27 29 29 29 27 25 24 24 25 24 23 24 24 24 24 24 24 23 24 24 25 26 26 27 27 27 27 26 26 25 24 23 22 22 21 20 19 19 18 17 16 16 15 15 14 14
15 16 17 17 18 19 20 20 20 20 21 22 22 22 20 22 23 22 22 21 21 21 21 22 23 23 24 25 25 26 26 26 26 27 29 28 27 26 25 26 28 29 30 30 28 26 26 26 26 25 25 26 25 25 26 26 26 26 26 27 27 28 28 28 28 28 28 27 26 26 25 24 23 22 22 21 20 19 18 17 16 16 15 15 15
16 17 18 18 18 18 18 19 19 17 17 18 19 20 20 20 20 19 20 19 20 21 21 22 22 22 24 26 26 27 26 25 26 27 27 27 27 27 26 27 28 29 30 31 31 30 28 28 28 28 27 27 27 26 27 27 28 29 28 28 29 29 30 29 29 29 29 28 28 27 26 25 24 23 23 22 21 20 19 18 17 16 16 15 15
17 16 17 18 17 17 17 16 17 17 16 15 15 16 16 17 17 18 18 18 19 19 19 19 20 22 24 24 25 26 25 24 25 25 26 28 29 30 30 31 32 31 30 31 33 32 30 30 30 30 29 28 28 28 27 27 29 31 31 31 30 31 31 31 31 29 29 29 28 27 27 26 25 24 24 23 22 21 20 19 18 17 17 16 16
16 16 17 18 18 17 16 15 15 15 15 15 16 16 15 16 16 17 17 17 17 17 18 17 18 21 22 23 24 24 23 22 22 23 24 25 25 27 28 29 31 31 30 30 32 33 31 30 31 31 30 30 30 29 27 27 29 31 33 33 33 32 32 33 33 32 31 30 29 28 28 27 26 26 25 24 24 23 21 20 19 19 18 18 17
15 16 17 17 18 17 16 15 15 15 16 16 17 17 17 17 17 18 17 17 17 17 17 16 18 20 19 20 20 21 22 19 16 16 16 18 20 22 24 25 27 29 29 30 31 32 31 30 31 32 32 31 32 31 29 29 30 32 34 35 34 33 33 33 33 33 33 32 31 30 29 28 27 27 26 26 25 24 23 21 21 20 20 19 19
14 14 15 15 16 17 16 16 16 15 16 17 17 18 18 18 18 19 19 19 18 17 15 14 18 19 17 17 19 19 17 15 15 15 13 15 17 19 21 23 23 26 30 31 30 29 29 29 31 33 34 33 33 33 32 31 30 31 35 36 35 34 34 33 33 33 34 33 32 31 29 28 28 28 28 27 26 25 24 23 22 22 21 21 20
13 13 13 14 14 15 15 15 15 15 16 16 17 18 18 18 18 19 19 18 18 18 16 15 17 18 17 17 17 14 14 15 20 21 17 15 15 16 19 21 22 24 28 31 30 29 29 31 33 34 34 35 35 34 34 32 30 31 34 36 35 35 34 34 33 33 33 33 33 32 30 29 28 28 28 28 27 26 25 24 23 22 22 22 22
12 12 11 12 13 13 13 14 14 15 15 16 17 16 16 17 17 17 17 16 17 18 18 17 18 18 18 18 16 15 18 21 22 23 22 22 20 19 19 20 21 21 24 27 28 30 31 33 35 34 34 36 36 35 35 33 31 32 34 34 34 34 34 34 33 33 33 33 33 32 31 30 29 29 29 28 27 27 26 25 24 24 23 23 23
11 10 11 12 12 12 12 13 14 14 14 15 15 14 14 14 15 16 17 16 16 17 19 19 18 18 17 18 18 18 20 21 21 23 26 28 26 23 22 23 23 23 23 24 26 29 31 33 35 35 35 37 38 37 37 35 34 34 34 33 33 33 34 34 33 33 33 33 33 33 32 31 31 30 30 30 29 28 28 27 26 25 25 24 23
9 8 10 12 12 11 12 13 13 14 14 14 14 14 14 15 16 15 15 16 16 17 18 18 18 19 18 18 20 20 19 20 21 22 23 28 30 29 28 26 25 25 25 26 27 29 31 33 35 36 35 37 38 39 40 38 37 36 35 34 33 32 32 33 33 33 33 33 33 33 33 32 32 32 32 31 31 30 29 29 28 27 26 24 24
8 7 9 10 10 12 13 13 13 13 13 13 13 13 14 15 15 14 15 16 16 15 17 18 18 19 19 20 20 20 20 21 21 21 22 25 28 29 29 28 26 26 26 27 28 29 30 32 33 33 34 37 38 38 39 40 40 39 36 34 33 32 31 32 32 32 32 32 33 33 33 33 33 32 32 32 32 32 31 30 29 28 27 26 24
9 8 9 9 10 12 13 13 13 14 14 13 13 13 13 14 15 15 17 17 16 15 16 17 17 17 19 19 19 20 21 22 22 23 23 23 26 28 29 28 28 29 27 25 26 27 28 29 29 30 32 36 38 39 39 40 41 41 38 34 33 31 31 31 32 32 32 32 33 33 33 33 33 33 33 33 32 32 32 31 30 29 29 28 26
9 9 9 9 10 14 13 12 12 12 13 13 13 13 13 14 15 15 17 17 17 16 17 17 16 16 17 18 18 19 20 21 23 23 24 25 28 32 32 30 30 32 31 28 27 27 28 29 28 29 31 33 37 39 40 39 40 41 38 34 32 32 31 31 31 32 32 33 33 33 33 33 33 33 33 32 32 32 32 32 32 31 31 30 29
8 8 8 9 12 15 14 12 11 10 10 11 12 13 13 14 15 14 15 16 17 17 17 17 16 16 16 16 17 18 19 20 22 23 24 26 28 32 35 34 33 33 32 30 30 31 32 33 32 32 34 35 37 39 40 40 40 39 37 34 33 33 33 33 32 32 32 33 34 34 34 34 34 33 33 32 31 31 32 32 33 33 33 32 31
8 8 10 11 12 14 14 12 12 11 11 10 11 11 12 13 14 14 14 15 17 17 17 17 16 16 16 17 17 17 18 19 21 23 24 26 28 31 35 34 33 35 34 32 33 33 32 33 32 32 32 33 35 36 36 37 39 40 38 36 35 34 35 35 33 32 32 33 34 35 36 36 35 34 33 33 32 32 32 32 33 34 34 34 33
8 9 11 12 13 13 13 13 13 13 13 12 12 13 14 14 14 14 14 14 15 16 16 16 15 15 17 19 19 18 18 19 21 23 25 26 28 30 33 34 35 38 38 35 35 35 35 34 31 30 29 28 30 32 32 31 34 39 39 37 36 36 37 37 35 33 32 32 33 34 36 37 36 35 35 34 34 34 33 33 33 34 35 35 35
10 11 12 12 13 13 13 13 14 14 13 14 14 15 15 16 15 14 14 14 15 14 15 15 15 15 16 18 19 20 20 21 22 24 25 26 28 30 32 33 35 38 38 36 35 36 36 34 33 32 29 28 28 29 30 28 29 35 37 37 38 37 38 39 37 34 32 31 32 33 34 35 36 36 36 36 35 35 34 34 34 34 34 34 34
11 12 12 12 12 12 12 13 13 13 14 14 15 16 16 16 16 15 14 14 14 14 14 14 15 16 17 18 19 20 21 23 24 25 25 26 27 28 30 32 33 37 39 36 34 35 35 33 34 35 33 30 28 26 28 29 27 29 33 36 38 40 40 39 37 36 34 32 31 32 33 35 36 36 36 36 36 35 35 35 35 35 34 34 34
10 12 12 12 12 12 12 13 13 14 14 15 15 16 16 16 16 16 15 13 13 13 14 16 16 17 17 18 19 20 22 24 26 26 26 26 27 28 30 31 31 34 36 36 36 37 38 35 33 35 35 33 30 26 26 28 28 28 31 34 37 39 41 40 38 37 36 34 32 32 33 34 35 35 35 35 35 34 35 35 35 36 36 35 35
12 13 13 12 12 13 13 13 14 14 15 15 15 16 16 16 16 16 15 14 14 14 14 16 17 17 17 17 19 21 23 26 26 26 26 26 26 28 31 31 31 32 32 36 40 41 40 39 36 34 34 34 33 30 28 28 28 29 31 33 34 37 39 39 38 38 38 36 34 33 33 33 34 33 33 33 33 33 34 34 35 36 37 37 36
13 14 14 13 13 13 14 14 14 14 15 15 16 16 16 16 17 16 15 15 15 15 16 16 16 16 17 19 21 23 24 25 25 26 26 26 26 28 30 31 31 32 32 33 39 42 41 40 39 38 34 32 33 33 31 29 28 29 31 32 32 35 39 39 38 38 38 36 35 34 34 34 34 34 33 33 33 34 34 35 35 36 37 38 37
13 14 15 15 15 15 14 15 15 14 15 15 16 16 16 16 16 16 16 16 16 17 18 18 16 16 19 21 22 22 22 22 24 25 26 27 28 29 30 30 30 31 31 31 36 43 42 38 39 40 37 35 36 35 34 31 28 28 30 31 30 31 35 36 35 35 36 36 35 35 35 35 35 35 35 34 33 33 34 35 36 36 37 38 37
13 13 14 15 16 17 16 15 16 15 15 15 15 16 17 17 16 16 16 16 17 18 19 18 17 18 20 21 20 20 20 21 22 25 27 28 29 31 31 32 33 32 32 32 35 41 42 38 38 40 40 39 38 36 35 35 32 30 30 32 31 30 32 34 34 34 36 37 36 35 36 35 35 36 36 35 34 34 34 35 36 36 37 38 38
11 12 14 16 17 18 17 17 17 16 16 15 15 16 17 17 17 17 16 17 18 19 18 18 18 19 21 21 19 18 19 20 22 24 27 29 29 31 31 31 33 34 34 33 33 38 42 40 38 38 38 38 37 34 35 37 36 33 33 34 33 31 32 34 36 37 38 39 38 36 36 36 36 36 37 36 35 34 35 35 35 35 36 37 37
12 14 15 15 17 19 20 19 18 17 17 16 16 17 17 17 18 17 17 18 19 19 18 19 19 19 20 20 19 17 18 20 22 25 28 29 30 30 30 29 29 31 32 32 32 34 39 40 38 36 35 35 35 35 35 35 34 33 34 35 34 33 32 33 36 37 37 40 40 37 35 36 36 37 37 36 36 35 35 35 34 33 34 35 35
14 15 14 14 16 19 20 20 20 21 20 18 17 18 17 17 18 18 18 19 19 19 19 20 20 20 19 19 18 17 17 19 23 26 28 29 31 31 30 30 28 29 30 31 31 32 35 39 38 37 36 35 35 36 36 34 32 31 32 33 35 36 36 37 37 36 35 37 38 37 34 34 34 36 37 37 36 35 35 34 34 33 32 33 34
12 12 13 13 15 17 19 20 21 22 22 20 18 19 18 18 19 19 19 19 20 20 21 20 19 19 18 17 17 16 17 19 22 26 26 27 30 31 31 32 32 32 32 32 31 30 31 35 37 36 37 37 36 36 36 34 32 31 32 34 35 37 38 38 38 37 35 34 35 35 33 32 33 35 36 38 37 36 35 34 34 33 33 34 35
12 14 15 15 15 17 18 19 21 21 22 22 19 19 19 19 20 19 18 18 19 20 20 19 19 19 18 16 16 17 17 18 21 24 24 25 28 31 32 34 36 36 37 36 33 31 30 32 33 34 35 36 35 34 35 34 33 32 32 34 36 37 38 37 37 38 37 35 34 34 33 32 34 36 36 38 38 36 34 34 34 34 34 34 35
16 17 16 14 15 17 18 19 20 21 22 22 20 18 20 20 20 19 18 18 19 20 20 20 20 20 19 17 17 17 17 18 20 22 24 25 28 30 32 35 37 38 39 40 37 33 32 31 30 30 31 32 31 32 34 34 34 33 32 34 36 36 36 35 37 39 40 38 37 36 34 32 34 36 36 37 37 36 35 34 34 34 33 33 34
14 14 13 14 17 19 19 19 19 20 21 21 19 19 20 21 19 18 17 18 20 21 22 22 21 21 21 19 18 18 18 18 19 21 23 26 28 30 31 33 37 39 40 42 40 36 33 31 29 28 28 29 28 30 32 33 34 34 33 35 36 36 34 33 35 38 40 40 40 38 35 34 35 36 35 36 37 36 35 34 34 33 33 33 33
12 13 14 16 18 19 18 18 18 18 19 19 18 18 19 18 17 17 17 18 20 21 22 23 22 21 21 20 20 20 19 19 20 21 23 25 28 30 32 32 35 38 40 42 42 39 34 31 30 28 27 29 28 28 29 32 34 34 32 34 37 37 35 35 35 36 38 40 40 39 37 36 37 37 36 37 37 36 35 35 35 34 34 34 33
13 14 15 16 17 17 17 17 16 17 20 21 19 18 17 16 16 16 16 18 18 19 21 23 23 22 21 21 21 21 21 21 23 24 25 27 28 31 32 32 34 37 39 42 43 40 35 32 32 29 27 29 28 28 29 30 31 33 33 33 36 37 36 37 37 35 35 37 38 38 38 38 38 37 38 38 38 37 37 36 35 35 34 34 33
14 14 14 15 16 16 16 16 15 17 20 20 19 19 18 16 15 15 16 18 18 19 20 21 22 22 22 23 23 23 24 24 26 27 28 29 30 31 32 32 33 35 38 41 42 39 34 32 32 30 29 30 30 29 30 30 30 33 34 34 36 36 37 39 40 37 35 35 36 37 38 38 38 37 37 38 38 39 38 37 35 34 33 33 33
14 14 14 15 16 16 16 15 17 19 20 19 19 19 19 17 16 15 16 18 19 20 21 21 21 22 23 24 24 25 27 27 28 29 30 30 30 30 31 31 33 35 37 39 39 36 33 32 33 33 32 33 33 30 29 29 30 31 33 36 37 37 38 39 41 40 37 34 34 36 38 38 38 38 38 39 39 40 40 37 35 34 32 31 31
15 15 15 16 16 15 15 17 18 19 20 20 20 19 19 19 18 16 16 18 19 21 21 20 20 21 23 24 25 26 28 29 28 28 29 30 30 30 30 32 34 36 38 39 38 34 32 32 34 37 36 35 36 34 30 28 30 31 33 35 37 38 39 40 40 40 38 34 33 35 38 38 37 39 41 41 40 41 41 38 36 35 33 31 30
15 15 15 17 16 16 17 19 20 20 21 21 21 20 19 19 19 18 17 18 19 20 20 20 20 21 23 24 24 26 28 29 28 27 27 28 30 30 30 32 35 37 40 42 38 34 33 33 35 39 39 38 39 38 34 30 31 34 34 35 35 37 39 39 39 39 37 35 33 34 38 39 38 40 43 42 41 41 42 40 37 35 34 32 31
16 15 17 18 18 18 20 20 20 21 21 21 21 21 20 20 20 20 21 21 21 20 20 20 20 21 24 24 24 24 25 25 24 24 24 26 28 30 31 33 34 36 40 42 38 35 36 37 37 38 40 40 41 42 38 33 32 34 34 35 35 36 38 37 37 37 37 36 35 34 36 38 38 41 43 42 41 42 43 42 39 36 34 34 32
18 17 18 19 19 19 20 19 19 20 20 19 19 20 21 21 20 21 22 23 22 20 20 20 19 20 22 23 22 22 22 21 21 21 23 25 27 29 32 32 33 36 41 43 42 41 41 39 38 38 39 40 40 42 41 36 34 33 32 34 35 37 37 35 33 34 35 35 35 33 34 35 37 40 41 39 39 41 43 44 42 39 36 35 34
19 18 19 19 18 19 19 19 19 19 19 19 20 21 20 19 19 19 20 21 21 21 20 20 18 19 21 21 21 21 21 20 20 21 23 25 27 29 30 30 32 38 43 44 46 47 44 42 41 42 41 38 39 42 40 37 36 34 32 34 37 38 38 35 34 34 34 36 36 33 33 36 36 37 38 36 36 38 41 44 43 40 37 35 35
20 19 19 20 20 20 20 20 19 20 20 21 21 21 18 17 18 19 19 19 20 21 20 19 18 18 19 21 21 22 22 21 21 22 24 25 27 28 28 28 32 40 44 45 47 49 48 46 45 43 37 32 36 40 38 36 37 38 38 37 37 38 38 37 35 34 33 35 36 34 34 37 36 35 35 33 33 35 38 40 41 40 37 34 34
21 21 22 22 22 20 20 20 20 21 21 19 19 19 18 18 19 19 17 18 19 20 20 19 18 18 20 20 21 22 22 21 21 23 24 25 26 26 25 27 32 39 43 44 47 50 51 50 48 43 35 28 29 32 31 33 37 40 43 42 37 36 37 36 34 33 33 33 34 33 35 37 36 34 33 31 31 32 35 38 39 39 37 35 34
Wind_Direction
292 304 306 300 298 291 280 269 268 276 287 291 291 295 297 292 288 292 297 301 306 308 305 300 298 299 301 297 285 273 270 270 266 258 251 249 246 246 243 239 241 242 239 238 242 245 245 243 240 237 238 239 231 217 213 215 215 215 214 214 215 215 215 214 213 212 210 208 207 205 205 206 207 210 214 218 220 222 225 230 233 236 241 243 243
253 267 273 276 276 277 278 277 279 285 289 290 290 292 293 291 286 283 288 294 299 300 296 292 293 299 301 301 289 273 266 265 263 262 261 263 261 256 243 232 232 233 234 235 237 241 243 242 243 242 240 238 239 232 222 218 218 218 218 217 217 218 217 217 216 215 214 214 212 210 210 210 211 214 217 221 225 228 228 231 235 238 243 247 250
265 263 262 264 271 280 286 286 287 289 292 291 289 289 289 288 286 285 290 294 295 294 291 291 292 295 299 300 291 276 267 263 266 272 271 265 263 258 242 235 235 230 227 231 235 237 239 240 240 242 243 238 237 238 233 225 221 220 220 220 220 220 219 218 218 217 217 217 216 215 214 215 216 217 219 222 227 230 232 234 236 241 244 248 251
271 270 270 270 276 281 283 284 284 282 285 287 284 286 288 287 286 287 293 296 296 296 293 293 294 294 295 294 285 275 270 269 271 273 268 258 258 260 251 247 247 240 230 228 234 237 238 239 238 237 241 240 236 235 235 232 227 223 221 222 222 222 221 220 219 218 219 220 218 217 217 219 220 222 222 223 226 230 234 237 240 243 245 248 249
272 272 272 273 275 277 279 282 283 282 283 284 283 285 285 286 287 287 290 295 298 299 295 290 291 292 292 290 282 278 276 272 269 270 269 261 258 263 261 258 255 249 240 231 231 235 237 239 240 237 236 238 238 235 233 232 232 228 224 223 223 223 222 221 220 219 220 222 221 219 219 220 221 224 226 225 226 229 234 239 244 248 250 251 252
277 278 276 277 277 278 280 282 283 283 283 282 285 286 283 283 284 285 288 294 297 298 297 291 288 289 290 290 287 283 278 275 274 273 270 265 263 266 265 262 258 255 251 244 239 238 237 237 240 239 236 235 237 237 234 231 231 232 229 225 224 223 224 223 221 221 221 222 223 222 220 221 222 224 227 228 228 230 234 238 244 249 253 254 254
278 280 280 281 281 282 284 285 284 283 281 281 284 285 284 283 281 282 285 290 292 293 296 295 289 286 287 289 289 286 281 281 283 280 275 269 267 266 264 261 259 257 255 253 251 247 242 238 237 240 238 236 235 237 237 234 230 230 232 231 227 224 224 223 222 222 222 222 223 223 222 222 222 223 226 229 232 234 236 239 243 247 251 254 255
278 279 281 284 284 284 282 280 278 276 275 276 280 282 284 285 285 286 287 288 288 289 293 294 291 288 288 288 286 283 281 281 282 280 278 276 272 268 262 259 259 258 257 257 257 253 249 243 237 237 238 238 236 236 237 238 235 230 230 232 232 229 226 224 223 223 223 222 222 222 224 223 223 225 226 229 233 237 240 241 243 245 248 251 253
284 283 285 290 291 287 283 279 275 271 268 268 274 277 280 284 288 290 291 290 289 288 289 289 288 289 289 288 287 283 280 279 279 277 276 277 277 273 264 260 260 260 260 260 260 256 250 244 240 237 237 237 237 237 236 237 238 236 232 231 232 233 230 228 225 225 224 223 223 223 224 225 225 226 228 231 234 237 241 243 244 245 247 248 250
292 295 295 297 298 296 293 290 283 274 269 268 271 272 274 282 287 288 288 288 288 287 287 287 287 288 288 288 288 286 283 279 276 273 274 276 278 278 272 263 261 261 261 261 259 256 250 244 240 239 238 237 237 238 237 237 238 239 238 234 232 232 233 232 230 228 226 225 225 225 225 226 227 228 230 232 233 235 238 241 244 245 246 247 248
299 300 301 301 300 299 299 300 298 288 280 276 275 276 278 283 287 289 288 287 288 289 290 292 291 290 288 286 285 285 285 282 276 272 272 273 275 279 275 266 263 262 261 259 257 255 251 245 240 240 240 237 236 237 239 239 239 239 240 239 236 232 232 233 234 232 229 228 227 227 227 227 228 230 231 232 233 234 235 237 240 242 244 245 246
300 302 302 303 302 300 298 298 299 299 295 288 284 283 283 285 288 290 291 290 289 291 295 299 296 291 288 286 285 286 287 284 278 275 274 271 271 273 271 269 270 267 262 259 258 256 252 246 242 242 243 240 236 236 238 240 241 240 239 240 239 237 234 232 233 234 233 232 231 230 230 230 231 231 231 231 231 232 234 235 237 239 241 244 245
302 303 303 303 304 303 301 299 297 296 298 296 293 290 286 287 290 292 293 293 293 294 301 304 297 290 289 289 289 289 291 289 283 279 277 276 273 270 269 269 273 273 267 261 258 257 254 250 247 245 244 243 241 237 236 238 241 242 240 239 239 239 238 235 233 233 234 235 234 233 233 233 233 233 231 230 230 231 232 234 236 238 239 241 243
303 300 302 302 302 301 301 303 302 299 299 300 298 295 291 291 293 293 292 292 293 296 303 304 294 290 292 292 294 297 297 295 290 285 282 282 278 273 270 269 271 273 270 264 257 254 253 252 251 250 246 244 243 239 238 240 240 241 241 239 238 238 239 238 236 234 234 235 235 235 235 236 235 233 231 230 230 231 233 234 236 237 239 240 242
304 305 305 303 303 302 301 300 298 297 298 298 297 295 293 292 291 291 291 290 289 293 302 304 296 294 293 292 299 304 303 304 303 299 297 293 283 275 272 270 270 269 266 265 260 253 252 252 252 253 250 246 242 239 240 242 241 241 240 239 238 237 238 238 238 237 236 235 236 237 236 236 235 233 231 231 231 233 235 237 238 239 240 241 242
303 302 299 296 299 302 302 300 296 294 292 291 290 289 287 287 286 285 285 284 286 292 296 296 295 297 298 298 302 301 298 302 301 297 298 293 283 276 271 270 272 266 259 260 262 257 255 254 252 252 252 248 243 240 241 241 240 240 240 239 238 237 237 236 237 237 237 236 236 237 237 236 235 232 232 232 233 235 237 240 241 242 242 242 244
292 290 292 289 288 290 292 294 293 293 290 286 283 280 281 281 279 277 278 281 287 294 294 294 296 298 302 302 300 295 292 298 299 295 288 282 281 278 275 278 283 277 265 262 263 260 256 255 252 248 248 248 244 241 239 239 237 237 238 239 238 238 237 236 236 236 236 237 236 236 236 236 234 232 232 233 235 237 239 241 242 244 244 245 246
291 294 294 289 288 290 293 295 297 295 292 289 286 285 285 282 282 285 286 290 293 294 295 297 297 296 298 300 296 294 297 300 300 298 293 287 284 280 279 282 285 280 269 266 267 263 258 257 254 248 243 244 242 238 237 237 236 236 238 239 237 237 236 235 235 236 235 236 236 236 236 236 234 232 232 234 237 239 242 243 244 244 246 248 249
296 302 297 295 299 300 302 304 307 305 302 303 303 304 302 298 300 299 295 296 296 295 296 298 299 297 298 299 297 299 301 300 298 298 297 295 293 287 283 281 281 279 274 272 274 271 264 260 258 253 244 241 241 238 236 235 236 238 239 240 238 236 236 235 235 235 235 235 236 236 236 236 235 233 234 236 238 241 243 246 247 246 246 248 248
303 314 312 311 313 308 307 312 313 311 311 315 316 316 316 313 310 305 299 300 301 298 298 300 300 300 299 298 297 298 299 299 300 299 295 294 295 296 293 289 286 283 280 278 277 275 270 264 260 256 250 246 244 241 238 236 236 238 241 241 239 236 235 235 236 235 235 236 236 236 236 236 236 236 236 238 240 241 243 246 248 248 247 247 247
300 310 308 313 319 313 314 320 317 313 312 315 316 315 316 315 314 314 312 311 308 303 300 300 299 299 297 295 296 297 298 299 299 299 298 294 295 299 299 297 293 286 281 280 280 279 275 269 263 259 257 254 250 245 242 239 236 237 240 241 239 236 234 234 235 236 236 236 237 236 236 236 236 237 238 239 241 243 244 245 247 247 246 246 247
304 302 300 315 320 310 315 319 314 313 314 314 316 317 317 318 319 319 317 316 314 310 305 303 302 302 300 297 298 300 300 301 299 300 303 297 294 298 299 296 293 289 284 282 282 281 278 273 268 265 264 260 255 251 246 242 238 236 237 240 239 236 235 235 236 236 236 236 236 235 236 237 237 239 240 241 242 244 245 246 246 246 246 246 248
306 302 310 321 307 302 315 319 311 315 318 318 320 320 320 320 320 318 316 317 316 314 313 314 316 316 313 308 305 304 304 303 303 304 303 297 295 297 296 293 290 286 284 282 278 274 273 273 269 266 265 262 260 258 253 248 244 239 236 238 241 240 239 239 238 238 237 237 236 236 236 237 238 239 240 242 243 245 246 247 247 246 245 245 248
303 308 313 305 295 303 318 324 321 320 319 318 318 318 320 321 322 321 318 318 319 321 323 325 325 322 320 319 314 312 312 311 310 308 305 301 299 295 294 294 291 289 290 289 282 275 273 272 271 268 265 261 260 261 259 255 250 245 239 237 241 244 244 243 241 240 240 238 237 238 238 237 238 238 239 241 243 244 246 248 248 248 246 246 247
302 305 294 292 302 312 320 324 326 326 322 321 319 318 321 323 323 323 321 321 320 322 325 326 326 321 323 326 321 315 316 316 314 311 310 309 306 299 297 296 291 289 293 293 289 284 279 275 273 272 269 264 260 260 262 260 254 251 245 240 240 243 245 247 246 243 241 241 240 238 238 239 238 239 239 240 243 245 246 248 248 248 247 247 247
301 293 291 300 310 315 319 322 324 324 322 322 323 322 324 326 326 323 321 320 318 321 324 327 328 328 328 327 323 321 322 323 320 317 317 318 315 309 303 298 293 291 291 290 289 288 284 280 276 273 272 269 261 259 262 262 257 255 252 245 242 242 242 245 249 248 243 242 242 240 238 238 239 240 241 242 243 245 247 248 248 249 248 248 248
295 293 299 307 310 313 318 320 319 319 318 319 320 320 323 326 328 327 324 320 319 320 323 326 330 331 328 325 326 330 332 331 328 324 323 320 318 315 308 303 298 294 292 291 290 287 285 284 282 277 275 273 268 263 262 262 259 256 252 247 243 241 241 242 245 249 248 244 242 241 240 239 239 240 241 243 244 245 246 247 248 248 248 248 248
302 304 307 305 304 308 312 312 312 313 312 313 313 315 320 325 328 329 326 320 318 320 323 327 329 328 325 326 329 332 333 334 333 329 325 320 318 317 313 308 301 294 293 294 290 287 285 285 286 284 280 276 274 268 261 259 259 253 246 245 244 242 243 244 244 246 250 249 245 242 241 240 240 241 241 242 244 244 245 247 247 248 247 247 247
305 301 302 301 300 304 306 307 309 310 310 313 314 315 319 324 326 326 324 320 317 320 325 326 327 325 324 325 326 326 329 334 334 330 326 321 318 318 316 314 308 298 293 290 287 286 286 285 284 284 283 280 276 272 263 257 257 252 243 242 244 244 245 248 248 245 247 251 249 244 241 240 240 241 242 242 243 244 245 246 247 247 246 246 246
299 297 299 301 303 305 306 307 310 312 314 317 317 317 318 319 320 320 321 319 316 320 323 324 326 326 324 323 321 323 328 335 336 332 329 325 320 317 315 314 311 303 295 289 288 289 289 288 284 279 279 280 278 276 271 264 260 255 246 240 242 246 247 251 252 249 246 248 251 247 240 239 241 241 241 242 243 244 246 247 247 247 246 245 245
300 302 303 306 306 305 306 307 309 313 315 316 316 315 314 314 314 316 317 315 314 318 321 322 326 325 323 323 322 326 332 336 338 336 333 327 320 314 312 310 309 306 301 294 289 291 292 289 286 282 276 277 280 277 274 269 263 258 252 244 242 245 248 251 254 253 247 245 248 249 243 241 243 243 242 243 243 244 245 246 247 247 246 245 244
298 301 307 311 311 309 308 304 305 308 310 312 313 312 311 310 311 312 312 310 311 317 321 322 325 325 324 324 325 329 335 337 339 338 334 330 322 313 308 306 305 305 304 299 293 293 293 290 286 283 278 277 279 275 272 268 263 259 254 248 246 245 247 251 254 255 251 246 246 249 247 244 244 245 245 244 244 245 245 246 246 246 246 244 243
303 305 308 308 308 311 311 303 299 301 303 305 307 307 308 309 309 308 308 307 309 317 321 320 321 324 325 326 328 331 335 338 341 342 339 337 331 323 314 306 303 303 302 301 300 296 295 292 286 282 280 280 278 272 267 265 263 259 252 249 251 249 248 252 256 257 255 249 244 247 250 247 244 244 245 245 245 247 247 246 246 246 245 243 242
302 301 300 299 300 307 312 309 302 297 295 299 303 303 303 307 308 307 307 307 310 316 319 315 317 322 325 326 328 330 336 341 346 347 343 339 336 333 327 317 310 307 302 300 301 298 296 296 291 285 283 280 275 271 268 265 263 261 256 254 256 254 250 252 255 257 255 250 245 245 249 249 245 243 243 245 246 247 247 246 245 245 244 242 240
292 294 295 298 301 306 313 315 311 305 299 296 298 299 301 305 308 306 305 307 310 315 316 312 312 318 322 323 323 327 336 343 347 349 345 341 338 337 336 333 325 318 311 303 300 298 295 295 293 287 285 279 272 272 274 269 264 261 258 257 258 256 251 250 253 255 253 249 245 244 246 246 244 243 243 244 246 247 245 244 244 244 242 240 239
296 301 304 307 309 309 310 310 309 309 306 299 293 293 298 303 306 304 302 304 308 314 315 311 310 313 316 318 318 323 335 343 348 350 349 345 342 340 342 345 341 334 326 315 306 301 295 293 291 286 282 280 274 271 272 269 264 260 258 258 257 255 253 252 252 253 252 247 243 243 245 245 244 243 242 243 244 245 244 242 242 241 241 240 240
300 298 294 298 304 304 301 301 300 302 304 301 293 291 293 298 301 301 299 301 306 313 314 310 307 308 311 313 313 318 330 342 348 351 351 349 346 345 346 349 348 344 341 332 319 308 300 294 291 284 279 280 277 269 265 264 262 259 258 258 259 258 256 254 251 250 248 244 242 243 242 243 244 243 242 241 242 242 242 242 242 241 241 241 241
276 277 280 288 296 297 296 297 297 296 298 298 297 294 293 297 300 298 297 300 305 311 311 304 301 302 306 306 304 311 326 339 346 348 349 349 349 348 347 346 346 345 344 341 332 319 308 299 291 284 278 280 278 267 262 263 261 258 258 258 259 259 259 256 251 247 244 243 243 243 241 241 242 241 240 239 238 240 241 241 241 241 241 241 241
273 280 286 292 292 290 290 291 290 291 293 296 301 301 296 300 303 299 299 300 303 307 305 299 297 298 301 298 292 302 321 334 340 344 346 346 347 348 347 345 344 343 342 342 338 327 316 307 297 286 279 279 277 266 262 265 263 258 257 255 255 256 255 254 249 243 241 242 244 244 243 242 240 238 237 236 235 237 240 241 240 240 240 240 239
284 286 289 288 286 289 293 291 290 296 296 296 303 305 299 299 301 299 303 304 302 305 303 299 298 296 298 297 288 293 310 324 332 339 343 345 344 344 345 344 343 342 342 341 339 332 323 313 305 295 283 280 279 271 266 264 260 257 254 251 252 254 252 250 247 244 241 242 243 244 242 240 238 237 236 235 234 235 238 240 240 238 237 237 235
295 292 289 287 291 299 303 299 299 302 296 293 300 303 298 298 299 301 308 308 304 303 301 300 300 297 297 297 289 287 298 311 318 325 332 338 338 337 340 342 341 341 341 340 338 335 327 316 310 305 293 284 281 276 269 263 258 257 254 249 248 251 252 252 250 246 243 242 242 242 241 239 237 237 235 234 233 233 236 237 236 234 233 233 233
294 291 291 294 298 299 297 295 297 295 291 295 302 301 295 296 298 301 308 309 306 306 305 303 302 300 297 295 291 288 294 305 312 313 317 323 325 327 331 336 338 339 339 339 337 334 328 319 312 309 301 291 284 277 272 268 264 260 255 250 247 247 249 251 249 244 242 240 238 238 240 238 236 237 236 234 232 232 234 234 233 232 231 230 230
294 293 295 296 294 293 294 295 293 289 291 298 303 300 296 293 293 296 305 310 312 315 315 310 304 300 298 296 294 291 294 303 312 312 312 317 319 321 326 331 334 336 337 336 335 332 327 320 315 310 303 297 291 283 274 269 267 263 257 250 247 245 243 245 246 242 236 234 233 235 237 236 234 236 237 235 232 232 232 232 232 232 230 229 228
291 291 291 287 287 292 295 292 288 290 296 302 302 299 295 289 286 292 302 309 314 318 320 317 309 303 300 297 296 295 296 301 310 313 314 317 319 319 323 329 332 333 334 335 334 330 323 317 312 309 303 298 295 290 278 267 265 266 260 252 248 246 241 241 243 242 238 234 233 234 235 233 232 234 236 236 234 232 232 232 232 231 230 229 228
281 283 282 281 284 286 287 288 290 293 297 301 301 297 292 288 286 287 294 303 309 313 317 318 315 312 308 302 300 301 300 299 304 312 315 316 318 318 322 329 332 331 332 335 335 331 323 313 307 304 302 296 292 291 286 273 263 262 261 256 251 246 242 241 241 242 242 239 235 232 232 233 234 236 237 236 235 233 233 232 231 230 230 230 229
276 278 277 278 282 281 283 291 295 295 295 297 300 298 293 290 288 285 287 293 298 304 309 311 315 319 318 310 303 303 305 303 305 311 315 314 315 317 322 328 331 331 334 337 336 330 323 314 304 300 298 294 289 288 288 280 266 257 254 255 252 246 243 244 242 240 240 240 235 230 231 235 237 238 237 237 236 235 234 234 232 230 230 231 231
271 271 269 276 283 284 287 292 293 295 297 297 300 302 298 294 291 286 285 287 290 295 303 308 315 322 321 313 303 304 311 314 312 313 316 315 314 318 322 325 328 332 336 338 335 328 323 317 307 300 295 290 285 283 282 278 267 255 249 249 251 249 248 246 241 237 235 235 233 230 232 237 239 238 237 237 237 236 235 235 234 233 232 232 232
273 273 271 276 284 286 289 289 286 289 294 294 297 302 303 302 299 291 287 286 285 291 300 308 315 322 322 317 312 313 318 319 318 318 318 316 316 319 321 323 328 334 337 338 336 331 327 323 317 311 304 295 286 278 274 269 261 252 247 248 247 245 245 243 237 235 233 231 231 231 231 233 235 237 239 239 239 238 236 234 235 236 236 236 233
273 273 272 276 281 282 282 280 279 282 287 290 297 302 305 307 304 299 294 288 285 289 298 306 313 318 319 320 322 325 324 323 323 322 319 317 318 320 321 324 332 337 339 341 340 336 333 331 327 324 316 302 285 275 268 260 250 241 238 243 244 240 240 242 240 237 234 231 231 232 232 231 232 236 239 240 242 241 237 234 234 236 238 239 237
268 268 269 271 274 276 276 275 275 275 278 287 295 299 304 307 304 301 297 290 287 290 296 305 312 315 318 323 327 329 327 324 322 319 318 320 320 321 322 329 338 342 342 342 341 339 339 340 337 332 324 303 281 273 265 252 241 231 225 231 238 237 237 240 239 235 234 234 232 231 234 234 231 232 236 238 241 242 238 235 235 235 236 236 236
266 267 270 271 272 273 272 272 274 273 277 284 288 290 300 306 304 303 299 291 290 292 296 303 311 316 322 325 326 325 323 320 317 317 320 322 321 321 323 331 342 345 342 340 341 342 344 346 345 342 336 315 289 277 264 245 233 227 221 221 227 233 234 235 234 232 232 235 234 231 232 233 230 231 233 233 234 237 237 234 234 234 234 234 235